• In Belarus
  • List of Countries
  • For 7 days
  • Water Temperature
  • Satellite Maps
  • Weather Map
  • Weather Widgets
  • user-avatar
    Login

    Hourly Weather Porokhon'

    Today, 24 June, Monday

    Time Temperature Precipitation Wind Pressure Humidity
    00:00 +20°C° 0.1 mm 1 mps 746 mmHg 90%
    01:00 +18°C° 0.1 mm 2 mps 746 mmHg 90%
    02:00 +19°C° 0 mm 1 mps 746 mmHg 90%
    03:00 +18°C° 0 mm 2 mps 746 mmHg 92%
    04:00 +18°C° 0 mm 3 mps 746 mmHg 93%
    05:00 +19°C° 0 mm 4 mps 746 mmHg 95%
    06:00 +19°C° 0 mm 4 mps 747 mmHg 93%
    07:00 +20°C° 0 mm 4 mps 747 mmHg 90%
    08:00 +21°C° 0 mm 4 mps 748 mmHg 86%
    09:00 +22°C° 0 mm 4 mps 748 mmHg 81%
    10:00 +25°C° 0 mm 4 mps 748 mmHg 75%
    11:00 +26°C° 0 mm 4 mps 748 mmHg 69%
    12:00 +26°C° 0.2 mm 4 mps 748 mmHg 69%
    13:00 +27°C° 0.2 mm 4 mps 748 mmHg 69%
    14:00 +27°C° 0.2 mm 4 mps 748 mmHg 69%
    15:00 +27°C° 0.3 mm 4 mps 748 mmHg 69%
    16:00 +26°C° 0.3 mm 5 mps 748 mmHg 70%
    17:00 +26°C° 0.3 mm 5 mps 748 mmHg 71%
    18:00 +23°C° 0 mm 4 mps 748 mmHg 75%
    19:00 +22°C° 0 mm 4 mps 749 mmHg 80%
    20:00 +20°C° 0 mm 4 mps 749 mmHg 84%
    21:00 +19°C° 0 mm 3 mps 749 mmHg 85%
    22:00 +18°C° 0 mm 3 mps 749 mmHg 86%
    23:00 +17°C° 0 mm 3 mps 749 mmHg 87%

    Tomorrow, 25 June, Tuesday

    Time Temperature Precipitation Wind Pressure Humidity
    00:00 +16°C° 0 mm 3 mps 750 mmHg 87%
    01:00 +14°C° 0 mm 3 mps 750 mmHg 86%
    02:00 +14°C° 0 mm 3 mps 751 mmHg 85%
    03:00 +14°C° 0 mm 3 mps 751 mmHg 85%
    04:00 +14°C° 0 mm 3 mps 751 mmHg 84%
    05:00 +14°C° 0 mm 3 mps 751 mmHg 83%
    06:00 +17°C° 0 mm 3 mps 751 mmHg 79%
    07:00 +18°C° 0 mm 4 mps 751 mmHg 75%
    08:00 +20°C° 0 mm 4 mps 752 mmHg 71%
    09:00 +21°C° 0 mm 4 mps 752 mmHg 66%
    10:00 +23°C° 0 mm 4 mps 752 mmHg 61%
    11:00 +25°C° 0 mm 4 mps 752 mmHg 56%
    12:00 +25°C° 0 mm 4 mps 752 mmHg 55%
    13:00 +25°C° 0 mm 4 mps 753 mmHg 55%
    14:00 +25°C° 0 mm 3 mps 753 mmHg 54%
    15:00 +25°C° 0 mm 3 mps 753 mmHg 57%
    16:00 +25°C° 0 mm 3 mps 752 mmHg 61%
    17:00 +24°C° 0 mm 3 mps 752 mmHg 64%
    18:00 +21°C° 0 mm 2 mps 752 mmHg 69%
    19:00 +20°C° 0 mm 2 mps 753 mmHg 74%
    20:00 +18°C° 0 mm 2 mps 753 mmHg 79%
    21:00 +17°C° 0 mm 2 mps 753 mmHg 79%
    22:00 +16°C° 0 mm 1 mps 753 mmHg 79%
    23:00 +15°C° 0 mm 1 mps 753 mmHg 78%

    Day after tomorrow, 26 June, Wednesday

    Time Temperature Precipitation Wind Pressure Humidity
    00:00 +15°C° 0 mm 1 mps 753 mmHg 79%
    01:00 +14°C° 0 mm 1 mps 753 mmHg 80%
    02:00 +13°C° 0 mm 0 mps 753 mmHg 81%
    03:00 +13°C° 0 mm 0 mps 753 mmHg 81%
    04:00 +14°C° 0 mm 0 mps 753 mmHg 80%
    05:00 +15°C° 0 mm 0 mps 752 mmHg 80%
    06:00 +16°C° 0 mm 0 mps 752 mmHg 75%
    07:00 +20°C° 0 mm 1 mps 752 mmHg 70%
    08:00 +21°C° 0 mm 1 mps 753 mmHg 64%
    09:00 +21°C° 0 mm 2 mps 752 mmHg 62%
    10:00 +23°C° 0 mm 2 mps 752 mmHg 60%
    11:00 +24°C° 0 mm 2 mps 751 mmHg 57%
    12:00 +24°C° 0.1 mm 3 mps 751 mmHg 58%
    13:00 +25°C° 0.1 mm 3 mps 751 mmHg 58%
    14:00 +25°C° 0.1 mm 4 mps 750 mmHg 59%
    15:00 +25°C° 0.1 mm 3 mps 750 mmHg 62%
    16:00 +25°C° 0.1 mm 3 mps 749 mmHg 65%
    17:00 +24°C° 0.1 mm 3 mps 749 mmHg 69%
    18:00 +23°C° 0.1 mm 2 mps 748 mmHg 74%
    19:00 +20°C° 0.1 mm 2 mps 748 mmHg 80%
    20:00 +20°C° 0.1 mm 1 mps 747 mmHg 85%
    21:00 +19°C° 0 mm 1 mps 747 mmHg 86%
    22:00 +19°C° 0 mm 1 mps 747 mmHg 86%
    23:00 +18°C° 0 mm 1 mps 746 mmHg 86%

    27 June, Thursday

    Time Temperature Precipitation Wind Pressure Humidity
    00:00 +17°C° 0 mm 2 mps 746 mmHg 88%
    01:00 +16°C° 0 mm 2 mps 745 mmHg 90%
    02:00 +16°C° 0 mm 2 mps 744 mmHg 92%
    03:00 +16°C° 0 mm 3 mps 744 mmHg 92%
    04:00 +16°C° 0 mm 3 mps 743 mmHg 91%
    05:00 +17°C° 0 mm 3 mps 743 mmHg 90%
    06:00 +18°C° 0 mm 4 mps 742 mmHg 87%
    07:00 +20°C° 0 mm 5 mps 741 mmHg 84%
    08:00 +21°C° 0 mm 5 mps 741 mmHg 81%
    09:00 +22°C° 0 mm 6 mps 740 mmHg 77%
    10:00 +22°C° 0 mm 7 mps 739 mmHg 73%
    11:00 +23°C° 0 mm 8 mps 739 mmHg 70%
    12:00 +23°C° 0 mm 8 mps 738 mmHg 70%
    13:00 +23°C° 0 mm 8 mps 737 mmHg 70%
    14:00 +23°C° 0 mm 8 mps 736 mmHg 69%
    15:00 +23°C° 0.3 mm 7 mps 735 mmHg 75%
    16:00 +22°C° 0.3 mm 7 mps 734 mmHg 80%
    17:00 +21°C° 0.3 mm 6 mps 733 mmHg 86%
    18:00 +20°C° 3.9 mm 6 mps 733 mmHg 88%
    19:00 +20°C° 3.9 mm 5 mps 732 mmHg 89%
    20:00 +19°C° 3.9 mm 5 mps 732 mmHg 91%
    21:00 +17°C° 0.4 mm 6 mps 732 mmHg 91%
    22:00 +16°C° 0.4 mm 6 mps 732 mmHg 92%
    23:00 +15°C° 0.4 mm 7 mps 732 mmHg 92%

    28 June, Friday

    Time Temperature Precipitation Wind Pressure Humidity
    00:00 +15°C° 0 mm 7 mps 732 mmHg 92%
    01:00 +14°C° 0 mm 6 mps 732 mmHg 91%
    02:00 +13°C° 0 mm 6 mps 732 mmHg 91%
    03:00 +13°C° 0 mm 6 mps 732 mmHg 90%
    04:00 +13°C° 0 mm 6 mps 732 mmHg 88%
    05:00 +13°C° 0 mm 6 mps 732 mmHg 87%
    06:00 +12°C° 0.1 mm 7 mps 732 mmHg 85%
    07:00 +12°C° 0.1 mm 7 mps 732 mmHg 83%
    08:00 +12°C° 0.1 mm 8 mps 731 mmHg 82%
    09:00 +12°C° 0 mm 8 mps 731 mmHg 80%
    10:00 +12°C° 0 mm 9 mps 731 mmHg 78%
    11:00 +12°C° 0 mm 9 mps 731 mmHg 77%
    12:00 +12°C° 0.2 mm 9 mps 731 mmHg 80%
    13:00 +12°C° 0.2 mm 9 mps 731 mmHg 83%
    14:00 +12°C° 0.2 mm 9 mps 731 mmHg 85%
    15:00 +11°C° 0.3 mm 8 mps 731 mmHg 87%
    16:00 +11°C° 0.3 mm 8 mps 731 mmHg 89%
    17:00 +11°C° 0.3 mm 7 mps 731 mmHg 91%
    18:00 +11°C° 0.1 mm 7 mps 731 mmHg 90%
    19:00 +11°C° 0.1 mm 7 mps 731 mmHg 90%
    20:00 +11°C° 0.1 mm 7 mps 731 mmHg 89%
    21:00 +11°C° 0.1 mm 7 mps 731 mmHg 88%
    22:00 +11°C° 0.1 mm 7 mps 731 mmHg 87%
    23:00 +11°C° 0.1 mm 7 mps 731 mmHg 87%

    29 June, Saturday

    Time Temperature Precipitation Wind Pressure Humidity
    00:00 +10°C° 0 mm 7 mps 731 mmHg 86%
    01:00 +10°C° 0 mm 7 mps 731 mmHg 85%
    02:00 +9°C° 0 mm 7 mps 731 mmHg 84%
    03:00 +9°C° 0 mm 7 mps 731 mmHg 83%
    04:00 +9°C° 0 mm 7 mps 730 mmHg 82%
    05:00 +9°C° 0 mm 7 mps 730 mmHg 81%
    06:00 +10°C° 0 mm 7 mps 730 mmHg 78%
    07:00 +11°C° 0 mm 8 mps 730 mmHg 75%
    08:00 +11°C° 0 mm 9 mps 730 mmHg 72%
    09:00 +11°C° 0.1 mm 8 mps 730 mmHg 76%
    10:00 +10°C° 0.1 mm 8 mps 731 mmHg 80%
    11:00 +10°C° 0.1 mm 7 mps 731 mmHg 85%
    12:00 +9°C° 0.4 mm 8 mps 731 mmHg 87%
    13:00 +7°C° 0.4 mm 8 mps 731 mmHg 89%
    14:00 +7°C° 0.4 mm 8 mps 731 mmHg 91%
    15:00 +6°C° 0.8 mm 7 mps 731 mmHg 92%
    16:00 +6°C° 0.8 mm 7 mps 731 mmHg 92%
    17:00 +6°C° 0.8 mm 7 mps 732 mmHg 93%
    18:00 +7°C° 0.2 mm 6 mps 731 mmHg 94%
    19:00 +7°C° 0.2 mm 6 mps 731 mmHg 94%
    20:00 +7°C° 0.2 mm 6 mps 731 mmHg 94%
    21:00 +7°C° 0.3 mm 6 mps 731 mmHg 95%
    22:00 +7°C° 0.3 mm 6 mps 731 mmHg 95%
    23:00 +7°C° 0.3 mm 6 mps 730 mmHg 95%
    Show more